EHI
0 0 0 0 0 0 0 1 2 2 1 0 1 2 3 3 3 6 8 9 13 16 13 8 6 7 14 23 30 27 22 20 19 18 15 15 18 20 21 23 25 24 16 10
0 0 0 0 0 0 0 1 2 2 1 0 1 2 2 2 3 7 9 11 16 20 19 14 10 9 13 21 28 30 28 25 22 20 18 17 20 20 20 23 27 26 19 13
0 0 0 0 0 0 0 0 1 2 1 0 1 1 2 3 5 7 10 12 16 19 21 21 18 14 15 21 27 31 35 34 30 25 19 16 19 20 18 21 26 26 21 16
0 0 0 0 0 0 0 0 1 2 1 0 0 2 4 6 7 8 10 10 11 13 16 21 21 18 18 23 28 33 38 40 37 30 22 17 16 17 15 18 24 26 23 22
0 0 0 0 0 0 0 0 1 1 1 0 0 1 4 6 8 10 10 9 9 10 13 16 19 20 20 23 27 32 38 40 38 34 27 20 15 13 12 14 21 24 25 27
0 0 0 0 0 0 0 0 0 0 0 0 0 1 3 5 8 11 11 11 10 12 15 17 20 22 22 22 24 30 37 39 36 32 29 24 19 15 14 16 20 24 25 26
0 0 0 0 0 0 0 0 0 0 0 0 0 1 4 5 8 10 12 11 11 13 17 21 25 27 25 23 25 32 38 36 32 30 29 28 24 20 20 23 24 23 23 23
0 0 0 0 0 0 0 0 0 0 0 0 1 3 5 6 7 9 10 11 11 13 17 21 26 28 26 23 26 34 39 37 32 31 31 31 27 22 22 25 25 24 22 21
0 0 0 0 0 0 0 0 0 0 0 0 1 3 5 5 5 7 9 11 12 14 15 16 21 25 25 24 28 35 40 39 35 34 34 32 27 22 20 22 24 24 22 19
0 0 0 0 0 0 0 0 0 0 0 0 0 2 4 6 6 7 11 13 13 13 12 12 15 21 24 27 31 36 40 39 37 36 33 30 28 24 21 20 23 25 23 21
0 0 0 0 0 0 0 0 0 0 0 0 0 1 5 6 6 8 13 15 14 12 10 10 15 22 26 29 31 35 40 40 37 34 30 28 29 27 22 20 21 24 24 23
0 0 0 0 0 0 0 0 0 0 0 0 0 1 4 6 7 10 15 17 15 12 10 11 17 24 28 28 28 32 36 37 34 30 26 25 27 27 23 20 21 23 24 23
0 0 0 0 0 0 0 0 0 0 0 0 0 1 4 6 9 13 17 18 17 16 15 15 20 26 29 29 28 28 29 28 25 24 23 24 26 25 22 21 22 24 25 24
0 0 0 0 0 0 0 0 0 0 0 0 0 1 4 6 9 13 17 19 19 21 20 20 23 29 32 33 32 30 25 21 20 22 24 25 27 25 22 20 22 24 25 24
0 0 0 0 0 0 0 0 0 0 0 0 0 1 4 7 10 13 17 20 21 21 19 21 28 34 37 37 38 34 27 24 24 25 27 29 30 28 24 21 21 21 22 23
0 0 0 0 0 0 0 0 0 0 0 0 0 2 5 9 13 16 18 19 19 17 16 20 31 38 40 40 39 35 31 30 30 29 30 32 33 31 27 23 21 21 21 20
0 0 0 0 0 0 0 0 0 0 0 0 1 3 7 13 16 17 17 17 17 15 15 20 29 37 38 38 38 36 35 32 31 29 30 32 32 28 25 24 24 24 23 20
0 0 0 0 0 0 0 0 0 0 0 1 2 4 8 14 16 15 15 18 19 19 19 20 23 29 33 34 35 35 34 31 28 26 27 28 26 23 23 24 26 27 25 22
0 0 0 0 0 0 0 0 0 0 0 1 3 6 9 14 16 16 17 20 23 23 22 20 19 23 29 31 31 30 29 27 24 22 22 22 20 20 23 26 27 29 27 25
1 1 0 0 0 0 0 0 0 0 0 2 4 7 10 15 19 20 20 21 23 23 21 19 17 21 28 29 27 26 24 22 21 21 20 19 20 22 25 27 28 29 28 27
0 0 0 0 0 0 0 0 1 2 2 3 5 8 12 17 22 24 22 20 21 20 19 18 18 21 26 26 24 23 22 20 21 22 22 22 23 24 25 26 28 29 28 27
0 0 0 0 0 0 0 1 3 6 6 5 6 11 16 19 22 25 24 23 22 20 19 20 20 21 23 22 20 19 19 17 18 21 24 25 25 24 23 24 26 27 27 26
0 1 2 2 2 2 2 3 5 8 8 9 10 14 17 20 22 25 26 25 22 20 19 19 19 19 20 19 19 19 18 17 18 21 26 28 27 25 23 23 24 25 24 24
1 2 4 6 7 6 6 6 7 7 9 11 13 14 16 18 21 24 25 24 21 18 17 17 17 18 18 18 19 20 20 21 23 24 26 26 25 24 22 22 22 20 19 20
2 3 5 9 11 10 8 8 7 8 10 13 15 15 17 18 20 22 24 23 19 15 14 15 17 18 16 15 17 17 19 22 23 24 23 21 20 20 20 19 18 15 14 13
3 4 5 10 13 12 9 7 7 9 12 16 17 17 18 19 19 21 23 22 18 14 13 15 17 18 15 12 12 14 17 19 20 21 21 18 17 18 17 16 14 12 11 9
Wind_Speed
6 6 5 4 5 4 2 0 2 2 2 3 6 7 8 9 7 8 8 9 8 8 8 7 6 6 6 6 5 3 2 2 1 1 0 0 1 1 1 1 2 1 0 1
6 7 6 5 4 4 2 1 1 2 4 3 5 6 7 7 7 8 8 8 9 9 9 6 6 6 6 6 5 4 3 2 1 1 1 1 0 0 1 1 2 1 0 1
8 6 5 4 4 4 3 2 2 3 3 4 4 4 5 6 6 7 8 8 9 9 9 8 6 5 6 6 5 4 3 2 1 0 0 1 1 0 0 0 1 1 1 0
8 8 6 4 5 4 3 3 4 4 4 4 4 3 6 8 8 8 7 7 8 9 9 9 8 6 5 6 6 5 4 2 2 1 1 1 0 0 1 0 1 1 1 0
7 7 7 6 5 4 3 3 5 5 6 4 5 2 4 9 8 9 9 8 8 9 9 8 8 6 6 6 6 5 4 3 2 1 1 2 2 1 1 1 1 1 0 0
9 8 7 7 5 4 3 4 6 6 5 5 5 3 2 5 7 9 9 9 8 8 9 8 8 7 6 6 6 6 5 3 2 1 1 1 2 2 3 2 2 1 1 1
11 9 8 7 6 5 4 5 4 4 5 4 3 1 3 5 7 8 8 8 9 8 8 8 8 7 6 5 5 6 6 3 2 1 1 1 2 2 2 2 2 1 1 1
9 8 8 7 6 6 6 7 5 4 4 3 2 2 4 7 7 9 8 8 9 8 8 8 8 7 5 5 5 6 6 4 2 2 1 1 1 1 2 2 2 2 2 2
7 6 6 6 6 7 7 8 7 6 6 2 2 2 4 7 8 9 9 9 7 7 7 7 7 7 6 6 5 6 6 4 2 2 1 1 1 1 2 2 1 2 2 2
10 8 7 5 6 7 7 8 6 6 4 3 3 3 3 7 7 8 8 8 7 7 6 6 5 6 7 6 6 6 6 4 3 2 1 1 1 1 1 2 2 2 2 2
9 9 8 7 7 6 7 8 6 6 6 5 3 2 4 4 5 7 8 8 7 6 6 7 6 6 6 7 6 5 5 4 3 2 2 1 1 1 1 1 1 2 2 2
6 8 8 8 7 7 9 8 7 6 5 5 2 1 3 4 5 6 6 7 6 5 5 6 6 6 5 6 6 5 5 4 4 3 2 1 0 1 1 1 2 2 2 2
4 6 7 8 8 8 8 8 9 8 6 5 3 1 3 4 4 4 5 6 6 6 5 5 5 5 4 4 3 4 3 3 3 3 2 1 0 1 1 2 2 2 2 2
5 7 9 8 6 6 7 8 8 8 5 4 2 1 2 2 4 4 5 5 5 6 4 4 5 5 4 3 3 3 2 2 2 2 2 1 1 1 1 2 2 2 2 2
7 9 9 9 9 9 8 9 9 8 6 4 2 2 5 2 4 5 5 5 4 4 4 4 3 4 4 3 3 2 1 1 1 1 1 1 1 1 1 2 2 2 3 3
7 8 9 11 10 9 9 10 10 8 6 5 4 3 2 3 5 5 6 5 4 3 3 3 3 4 3 3 2 2 1 1 1 1 0 0 0 0 1 2 2 2 2 3
6 7 9 11 11 12 12 9 8 7 6 6 3 1 2 3 3 4 5 5 4 3 2 2 2 2 2 3 2 2 1 2 2 1 1 1 1 1 1 2 2 2 3 3
6 6 7 10 9 12 7 7 7 6 4 3 2 2 2 3 5 6 5 5 4 3 2 2 2 2 2 2 2 2 1 2 2 1 1 2 2 2 2 2 2 2 3 3
7 6 8 8 10 9 7 6 5 4 1 2 2 2 3 3 5 6 6 6 5 4 3 2 3 3 3 3 3 3 3 2 2 2 2 2 2 3 3 3 3 2 3 4
9 7 8 8 10 9 5 3 3 4 3 2 1 1 2 2 1 3 6 6 5 4 4 3 3 4 4 4 3 2 2 2 2 2 2 2 2 3 3 2 3 3 3 4
10 9 10 11 10 6 3 4 5 5 1 3 3 2 2 3 2 5 5 5 5 4 4 4 4 4 4 4 4 3 3 3 3 4 3 2 2 3 2 2 2 3 4 4
9 8 8 9 9 5 4 4 2 4 4 3 3 3 3 4 6 6 5 5 4 4 4 4 3 4 4 4 3 3 3 4 4 4 3 2 2 4 3 2 3 3 4 4
7 5 4 3 2 1 3 4 4 4 3 3 3 3 3 3 4 5 5 4 3 3 3 3 3 3 3 3 2 2 2 3 3 4 4 3 3 3 2 3 3 3 3 4
4 3 4 3 1 1 2 3 3 3 3 3 3 2 2 2 3 4 4 4 3 3 2 2 2 3 3 3 2 2 2 3 3 3 4 3 3 3 2 2 2 2 3 3
4 3 4 3 1 1 1 3 3 3 3 3 2 2 2 2 2 3 3 3 2 2 2 2 2 2 2 2 2 2 2 2 3 4 4 4 3 3 2 2 1 2 1 2
6 3 4 3 1 2 0 1 2 2 2 2 1 1 1 1 3 3 2 3 2 2 2 1 1 1 1 1 2 2 2 3 3 4 4 4 3 3 2 2 1 2 1 1
Wind_Direction
215 238 237 217 225 252 246 81 110 112 142 140 128 141 156 160 164 158 157 156 154 149 140 142 145 137 130 127 126 116 98 92 77 50 17 179 159 189 145 132 103 106 76 36
228 239 242 223 222 240 265 124 152 172 181 176 140 141 160 161 169 164 165 161 157 149 144 147 155 150 143 137 133 127 117 89 80 113 231 244 228 203 137 87 117 130 69 359
228 241 237 237 236 252 259 235 214 223 202 195 157 145 160 163 171 167 167 162 155 153 151 156 160 154 146 141 135 129 121 113 90 350 311 297 147 265 63 119 136 133 85 53
231 233 231 226 245 252 253 245 229 225 236 225 217 184 180 173 175 169 165 161 160 159 156 160 159 152 143 135 130 121 115 102 69 36 5 331 37 30 47 29 72 79 86 259
233 229 234 234 247 253 266 271 265 247 260 262 226 208 174 169 172 168 167 167 164 163 160 157 150 145 144 141 136 126 114 106 89 52 10 340 352 358 13 18 42 26 292 252
243 235 234 245 244 245 284 295 278 257 258 256 240 230 164 159 165 165 163 164 163 158 154 148 143 143 149 145 140 130 123 114 110 90 41 12 353 358 351 344 347 326 298 269
229 230 225 227 239 222 243 265 274 259 246 246 219 177 130 145 153 151 147 150 155 153 150 149 148 146 149 142 132 127 126 130 134 126 81 38 351 340 340 331 331 323 331 335
235 222 222 218 233 252 236 245 256 278 282 287 323 103 131 127 125 131 139 145 149 146 145 146 145 146 148 143 132 125 129 137 140 127 94 64 6 344 347 348 340 346 338 343
268 247 224 215 233 249 255 261 276 285 285 286 300 131 135 133 138 135 137 135 140 146 146 147 149 155 153 143 132 128 127 130 137 131 124 102 46 10 347 346 335 336 345 346
263 266 254 233 221 237 256 275 293 291 307 298 271 229 158 152 144 141 142 142 146 147 145 146 155 154 144 141 133 127 128 137 142 135 172 109 73 10 340 347 358 356 351 348
258 271 257 239 235 246 246 252 268 291 300 292 289 326 114 149 153 148 144 145 152 154 154 149 153 146 141 141 138 138 137 145 146 138 123 78 83 4 333 338 348 344 336 335
253 264 265 247 238 244 256 258 256 260 274 290 281 258 154 154 154 145 140 140 141 141 138 138 140 136 141 141 142 143 144 153 157 154 140 133 95 33 339 342 334 336 333 324
277 265 264 247 230 229 248 262 268 274 274 286 278 132 129 120 126 133 135 132 125 123 125 129 129 128 127 128 125 135 149 156 158 152 154 133 61 3 336 325 319 324 316 308
266 258 262 262 266 261 254 263 269 273 275 285 278 166 236 144 122 126 129 126 124 115 111 112 125 121 115 108 107 120 150 148 139 139 153 148 183 277 296 300 308 311 301 289
252 257 263 269 270 271 268 269 267 267 276 278 260 230 209 211 136 125 120 114 103 116 117 104 106 117 119 119 120 117 127 99 104 134 168 169 198 252 295 306 308 315 309 301
239 265 269 266 265 259 255 254 257 263 273 253 226 242 176 129 115 127 130 129 115 96 94 96 98 112 121 129 132 138 167 122 90 67 23 104 211 267 295 296 305 312 306 300
246 258 265 266 265 264 253 253 258 261 269 280 268 234 103 105 125 125 128 129 123 117 105 80 87 84 107 110 106 93 77 68 73 60 22 22 330 305 300 303 320 312 307 302
250 262 261 264 263 258 259 252 257 260 261 292 341 56 105 114 108 109 106 110 114 103 75 77 80 75 96 98 86 58 59 65 52 19 356 5 334 304 293 293 292 290 291 288
231 240 256 261 256 252 258 270 265 250 225 13 22 38 61 104 120 115 99 95 93 92 74 63 76 72 61 71 73 70 38 34 30 17 359 336 298 294 298 299 297 288 283 283
222 219 239 253 260 257 260 281 296 257 204 42 47 53 71 90 173 104 89 92 89 82 78 65 76 75 69 53 44 55 39 8 355 339 319 303 291 291 294 300 296 293 283 283
218 218 231 247 256 261 305 307 278 257 65 42 61 74 78 77 65 97 100 96 92 80 73 67 69 69 70 61 54 41 20 1 356 344 336 326 314 292 281 283 286 288 284 285
237 235 234 247 250 253 337 332 16 49 41 41 46 70 80 84 99 105 105 102 101 92 80 69 71 72 78 72 62 46 14 357 350 338 327 320 305 295 301 293 281 280 281 279
232 246 251 261 252 85 36 41 58 69 51 35 40 73 103 105 109 114 109 99 89 82 79 74 69 70 80 75 57 35 8 346 337 335 325 314 301 286 291 290 288 287 290 293
218 255 251 242 232 352 37 25 34 47 33 43 62 64 86 101 112 110 114 112 104 91 80 78 76 59 55 67 54 31 4 341 333 325 316 308 299 293 305 295 304 311 313 309
299 267 255 243 257 284 11 10 6 46 57 44 28 50 81 96 111 111 110 115 115 110 85 69 65 59 34 31 38 14 5 344 328 313 305 300 295 296 292 292 324 313 330 314
293 287 263 261 279 280 69 358 330 9 48 64 61 56 83 100 112 115 113 113 114 114 106 100 82 56 20 10 6 0 349 337 320 308 308 306 300 293 290 291 309 337 314 317